[[{"header":{"parameterUnit":"m.s-1","parameterCategory":1,"la1":30.2991,"la2":30.254,"lo1":-89.0895,"lo2":-89.0444,"dy":0.0017,"dx":0.0017,"nx":28,"ny":28,"refTime":"2025-01-24T09:00:00:Z","depth":0,"parameterNumber":2,"parameterNumberName":"U-component_of_WINDS"},"data":[0,0,0,0,0,0,0,0,0,0,0,0,0,0,0,0,0,0,0,0,0,0,0,0,0,0,0,0,0,0,0,0,0,0,0,0,0,0,0,0,0,0,0,0,0,0,0,0,0,0,0,0,0,0,0,0,0,0,-2.6325,-2.6325,0,-2.6318,-2.6318,-2.6318,-2.6223,-2.622,-2.6218,-2.6215,-2.6211,-2.6213,-2.6215,0,0,0,0,0,0,0,0,0,0,0,0,0,-2.6257,-2.6259,-2.6325,-2.6325,-2.6325,-2.6318,-2.6318,-2.6318,-2.6223,-2.622,-2.6217,-2.6214,-2.621,-2.6213,-2.6216,0,0,0,0,0,0,0,0,0,0,0,0,0,-2.6272,-2.6259,-2.6325,-2.6276,-2.6272,-2.6318,-2.6318,-2.6318,-2.6224,-2.622,-2.6216,-2.6213,-2.621,-2.6213,-2.6216,-2.6308,0,0,-2.6226,-2.6227,0,0,0,0,0,0,0,0,-2.6271,-2.6275,-2.6284,-2.628,-2.6275,-2.6267,-2.6292,-2.6315,-2.6225,-2.6242,-2.6215,-2.6211,-2.6233,-2.6234,-2.6241,-2.6308,-2.6308,-2.6226,-2.6228,-2.6229,-2.623,0,0,0,0,0,0,0,-2.627,-2.6274,-2.6322,-2.6284,-2.6279,-2.6255,-2.6254,-2.6296,-2.6258,-2.624,-2.6233,-2.6234,-2.623,-2.6238,-2.624,-2.6308,-2.6226,-2.6229,-2.6231,-2.6232,-2.6449,-2.6452,0,0,0,0,0,0,-2.6276,-2.6274,-2.6322,-2.6322,-2.6264,-2.626,-2.6257,-2.6274,-2.6257,-2.6251,-2.6237,-2.6229,-2.6234,-2.6236,-2.6239,-2.6345,-2.6229,-2.6232,-2.6234,-2.6445,-2.6449,-2.6454,0,0,0,0,0,0,-2.6275,-2.6281,-2.6323,-2.6296,-2.63,-2.6265,-2.6283,-2.6275,-2.6283,-2.6255,-2.6248,-2.6252,-2.6231,-2.6235,-2.6291,-2.6344,-2.6234,-2.6237,-2.644,-2.6446,-2.6451,-2.6559,0,0,0,0,0,0,-2.6273,-2.6281,-2.6316,-2.6297,-2.6301,-2.6375,-2.6287,-2.6278,-2.6289,-2.6279,-2.6267,-2.6262,-2.6229,-2.6287,-2.6294,-2.6346,-2.6239,-2.6435,-2.6443,-2.645,-2.655,-2.6567,-2.6582,0,0,0,0,0,-2.6271,-2.6347,-2.6318,-2.6324,-2.6344,-2.6378,-2.638,-2.634,-2.6293,-2.6328,-2.6309,-2.6262,-2.6337,-2.6294,-2.6301,-2.6355,-2.6432,-2.6441,-2.6449,-2.6543,-2.6564,-2.6582,0,0,0,0,0,0,-2.6375,-2.6344,-2.6311,-2.6384,-2.6384,-2.6362,-2.6404,-2.6364,-2.6378,-2.6368,-2.6319,-2.6317,-2.6381,-2.6373,-2.6326,-2.6442,-2.6376,-2.6387,-2.6445,-2.6464,-2.648,-2.648,-2.6242,0,0,0,0,0,-2.6406,-2.6435,-2.6407,-2.6474,-2.6475,-2.644,-2.6453,-2.6422,-2.6421,-2.6421,-2.6406,-2.6407,-2.643,-2.6447,-2.6467,-2.6548,-2.6544,-2.6589,-2.6605,-2.6618,-2.6628,-2.6669,-2.6688,-2.6482,-2.6482,-2.6482,0,0,-2.6471,-2.6458,-2.648,-2.6494,-2.6491,-2.6522,-2.6441,-2.6478,-2.6501,-2.6426,-2.6478,-2.6468,-2.6465,-2.6534,-2.6564,-2.653,-2.6683,-2.6629,-2.664,-2.6642,-2.6679,-2.6699,-2.6716,-2.6488,-2.6487,-2.6486,0,0,-2.6605,-2.6599,-2.6652,-2.665,-2.6644,-2.662,-2.6633,-2.6616,-2.6606,-2.6656,-2.66,-2.6627,-2.6669,-2.6669,-2.6675,-2.6806,-2.6763,-2.6814,-2.6897,-2.6938,-2.6954,-2.6968,-2.7014,-2.7031,-2.6824,-2.6825,-2.6825,0,-2.6687,-2.6731,-2.6686,-2.6726,-2.6733,-2.6665,-2.6719,-2.672,-2.6722,-2.6729,-2.6691,-2.674,-2.6734,-2.6801,-2.6833,-2.684,-2.6853,-2.6816,-2.6955,-2.6969,-2.6982,-2.7025,-2.7042,-2.6831,-2.683,-2.6829,-2.6829,0,-2.6831,-2.6863,-2.6908,-2.6909,-2.6922,-2.6969,-2.693,-2.6949,-2.6916,-2.6896,-2.6948,-2.6938,-2.6953,-2.6967,-2.6937,-2.703,-2.7009,-2.6964,-2.6896,-2.7008,-2.7048,-2.7064,-2.684,-2.6837,-2.6836,-2.6834,0,0,-2.7033,-2.7006,-2.7023,-2.7022,-2.701,-2.7034,-2.7078,-2.7092,-2.7108,-2.7112,-2.7147,-2.7183,-2.714,-2.7147,-2.7115,-2.7151,-2.7254,-2.7101,-2.71,-2.7129,-2.7355,-2.7388,-2.7408,-2.7225,-2.7228,-2.7231,-2.7355,0,-2.7161,-2.7233,-2.7192,-2.727,-2.7298,-2.7233,-2.727,-2.7267,-2.7249,-2.727,-2.725,-2.7276,-2.7219,-2.7222,-2.7254,-2.7235,-2.7299,-2.7226,-2.7257,-2.7259,-2.726,-2.7429,-2.7465,-2.7583,-2.737,-2.7373,-2.7375,0,-2.7321,-2.7329,-2.741,-2.739,-2.74,-2.7435,-2.7443,-2.7465,-2.7459,-2.7443,-2.745,-2.7409,-2.745,-2.7383,-2.7439,-2.739,-2.74,-2.7393,-2.7396,-2.7398,-2.7324,-2.7435,-2.7619,-2.7637,-2.7399,-2.7397,-2.7395,0,-2.7459,-2.749,-2.7541,-2.7542,-2.7521,-2.7547,-2.7539,-2.753,-2.7541,-2.7548,-2.7554,-2.7568,-2.7575,-2.7586,-2.755,-2.7505,-2.7611,-2.7541,-2.7598,-2.76,-2.7624,-2.7623,-2.7812,-2.7632,-2.7632,-2.7631,-2.7631,0,-2.7607,-2.7658,-2.7602,-2.7634,-2.7689,-2.7641,-2.7697,-2.7683,-2.7675,-2.7703,-2.7648,-2.7675,-2.7626,-2.7648,-2.7621,-2.767,-2.7674,-2.7663,-2.7655,-2.7667,-2.7669,-2.7673,-2.7664,-2.7636,-2.7635,-2.7634,-2.7633,0,-2.777,-2.7734,-2.7785,-2.776,-2.7755,-2.7797,-2.7775,-2.7804,-2.778,-2.7816,-2.7822,-2.7787,-2.781,-2.7775,-2.7795,-2.7776,-2.7844,-2.7824,-2.7846,-2.784,-2.7899,-2.7893,-2.8098,-2.8122,-2.7927,-2.7929,-2.793,0,-2.7866,-2.7904,-2.7882,-2.7895,-2.789,-2.7914,-2.7923,-2.7877,-2.7889,-2.7885,-2.7914,-2.7932,-2.7944,-2.7985,-2.7961,-2.7976,-2.7955,-2.8026,-2.7957,-2.7968,-2.7955,-2.7953,-2.7956,-2.804,-2.8042,-2.8044,-2.8046,0,-2.8041,-2.8021,-2.8036,-2.8045,-2.8057,-2.8062,-2.8063,-2.8078,-2.8029,-2.8046,-2.8068,-2.8077,-2.8096,-2.8115,-2.8123,-2.8116,-2.8073,-2.8067,-2.8081,-2.8094,-2.8105,-2.8099,-2.7883,-2.8063,-2.8061,-2.806,-2.8059,-2.8058,-2.8173,-2.8202,-2.8191,-2.8209,-2.8204,-2.8206,-2.823,-2.8209,-2.8227,-2.8237,-2.8209,-2.8238,-2.823,-2.8236,-2.8234,-2.8256,-2.8225,-2.8245,-2.825,-2.8256,-2.8265,-2.8102,-2.8257,-2.8257,-2.8256,-2.8256,-2.8255,0,-2.8344,-2.8332,-2.8349,-2.8351,-2.8366,-2.8322,-2.832,-2.8335,-2.836,-2.8356,-2.8368,-2.8393,-2.841,-2.8388,-2.8401,-2.8423,-2.8403,-2.8428,-2.8426,-2.8424,-2.8292,-2.8278,-2.8443,-2.8443,-2.8443,-2.8443,-2.8443,-2.8443,-2.8435,-2.8481,-2.846,-2.8503,-2.8491,-2.8518,-2.852,-2.8521,-2.8517,-2.8547,-2.856,-2.8544,-2.8532,-2.8544,-2.8558,-2.8551,-2.8558,-2.8589,-2.8575,-2.8452,-2.8434,-2.8416,-2.8403,-2.8592,-2.8592,-2.8705,-2.8706,-2.8707]},{"header":{"parameterUnit":"m.s-1","parameterCategory":1,"la1":30.2991,"la2":30.254,"lo1":-89.0895,"lo2":-89.0444,"dy":0.0017,"dx":0.0017,"nx":28,"ny":28,"refTime":"2025-01-24T09:00:00:Z","depth":0,"parameterNumber":3,"parameterNumberName":"V-component_of_WINDS"},"data":[0,0,0,0,0,0,0,0,0,0,0,0,0,0,0,0,0,0,0,0,0,0,0,0,0,0,0,0,0,0,0,0,0,0,0,0,0,0,0,0,0,0,0,0,0,0,0,0,0,0,0,0,0,0,0,0,0,0,-3.0196,-3.0198,0,-3.0339,-3.034,-3.0342,-3.0312,-3.0309,-3.0306,-3.0304,-3.0448,-3.0454,-3.046,0,0,0,0,0,0,0,0,0,0,0,0,0,-2.9895,-2.9901,-3.0196,-3.0198,-3.02,-3.0338,-3.034,-3.0342,-3.0312,-3.0309,-3.0306,-3.0303,-3.0445,-3.0453,-3.046,0,0,0,0,0,0,0,0,0,0,0,0,0,-3.0031,-2.9903,-3.0196,-3.0201,-3.0203,-3.0338,-3.034,-3.0343,-3.0313,-3.0309,-3.0305,-3.0301,-3.0443,-3.0452,-3.0461,-3.0599,0,0,-3.049,-3.0494,0,0,0,0,0,0,0,0,-3.0023,-3.0042,-3.0199,-3.0201,-3.0204,-3.0303,-3.0287,-3.0429,-3.0314,-3.0271,-3.0304,-3.0299,-3.0403,-3.0415,-3.045,-3.0605,-3.0612,-3.0491,-3.0497,-3.0501,-3.0503,0,0,0,0,0,0,0,-3.0014,-3.0035,-3.0252,-3.0201,-3.0204,-3.0196,-3.0211,-3.0314,-3.0357,-3.0275,-3.0273,-3.029,-3.0403,-3.0441,-3.0454,-3.0614,-3.0491,-3.0499,-3.0505,-3.0509,-3.0887,-3.0892,0,0,0,0,0,0,-3.0002,-3.0028,-3.0248,-3.0257,-3.0102,-3.0205,-3.0221,-3.0275,-3.0356,-3.0365,-3.0293,-3.0288,-3.0427,-3.0443,-3.0459,-3.0624,-3.0501,-3.051,-3.0515,-3.0883,-3.0888,-3.0893,0,0,0,0,0,0,-2.9996,-3.0022,-3.0242,-3.0142,-3.0169,-3.0214,-3.0275,-3.028,-3.0319,-3.037,-3.0378,-3.0325,-3.0425,-3.0445,-3.0564,-3.0629,-3.0514,-3.0522,-3.0878,-3.0885,-3.0891,-3.0957,0,0,0,0,0,0,-2.9988,-3.002,-3.0074,-3.0143,-3.0175,-3.0346,-3.0279,-3.0286,-3.0335,-3.033,-3.0402,-3.041,-3.0423,-3.055,-3.0573,-3.064,-3.053,-3.0872,-3.0881,-3.0889,-3.0949,-3.0965,-3.0979,0,0,0,0,0,-2.9977,-3.0086,-3.0077,-3.0103,-3.0242,-3.035,-3.0368,-3.0382,-3.0341,-3.0394,-3.0427,-3.0407,-3.0618,-3.0563,-3.0589,-3.0659,-3.0868,-3.0878,-3.0888,-3.0943,-3.0962,-3.0978,0,0,0,0,0,0,-3.0022,-3.0095,-3.0086,-3.0221,-3.028,-3.0345,-3.0413,-3.0402,-3.0474,-3.0465,-3.0479,-3.0495,-3.0616,-3.0649,-3.0586,-3.0795,-3.0737,-3.0753,-3.077,-3.0788,-3.0803,-3.0792,-3.0538,0,0,0,0,0,-3.0048,-3.0131,-3.019,-3.0303,-3.0333,-3.0368,-3.0416,-3.0421,-3.0482,-3.0507,-3.0549,-3.0608,-3.0688,-3.074,-3.0816,-3.0954,-3.0968,-3.1014,-3.1029,-3.1041,-3.1054,-3.1129,-3.115,-3.0926,-3.0926,-3.0926,0,0,-3.0102,-3.0152,-3.0203,-3.0314,-3.036,-3.0444,-3.0389,-3.0481,-3.0543,-3.0521,-3.0636,-3.0668,-3.0735,-3.0864,-3.0923,-3.0895,-3.1119,-3.1054,-3.1063,-3.107,-3.1141,-3.1163,-3.1182,-3.0933,-3.0931,-3.093,0,0,-3.0244,-3.029,-3.039,-3.0437,-3.0508,-3.0531,-3.0555,-3.0622,-3.0643,-3.0759,-3.0744,-3.0817,-3.0954,-3.1002,-3.1045,-3.1204,-3.1188,-3.1228,-3.1305,-3.1378,-3.1395,-3.1411,-3.1468,-3.1488,-3.1241,-3.1241,-3.1241,0,-3.0302,-3.0429,-3.0442,-3.0535,-3.0584,-3.0568,-3.0668,-3.0713,-3.0805,-3.0839,-3.0806,-3.0977,-3.1021,-3.1161,-3.12,-3.1235,-3.1262,-3.122,-3.1392,-3.1408,-3.1423,-3.1477,-3.1498,-3.1246,-3.1245,-3.1245,-3.1244,0,-3.0497,-3.0585,-3.0657,-3.0747,-3.0803,-3.0899,-3.0926,-3.0982,-3.0982,-3.1008,-3.1125,-3.1177,-3.1263,-3.1297,-3.1298,-3.1437,-3.1417,-3.1389,-3.133,-3.1448,-3.1499,-3.152,-3.1252,-3.125,-3.1249,-3.1248,0,0,-3.0672,-3.0767,-3.0794,-3.0834,-3.0911,-3.0979,-3.1073,-3.1158,-3.1205,-3.1269,-3.1349,-3.1464,-3.1438,-3.1486,-3.1492,-3.1556,-3.1679,-3.152,-3.1521,-3.1547,-3.1835,-3.1856,-3.188,-3.1669,-3.1673,-3.1676,-3.1829,0,-3.082,-3.0989,-3.1003,-3.1155,-3.1236,-3.1221,-3.1304,-3.1359,-3.1386,-3.1457,-3.1486,-3.1568,-3.1527,-3.1556,-3.1618,-3.1651,-3.1737,-3.164,-3.1742,-3.1746,-3.1726,-3.1907,-3.193,-3.2072,-3.1849,-3.1852,-3.1855,0,-3.1017,-3.1087,-3.1246,-3.1311,-3.1346,-3.142,-3.1499,-3.1568,-3.163,-3.1644,-3.1698,-3.1696,-3.1792,-3.173,-3.1863,-3.1797,-3.1839,-3.1861,-3.1867,-3.1878,-3.1808,-3.1922,-3.2117,-3.2139,-3.1886,-3.1884,-3.1882,0,-3.1128,-3.1262,-3.1375,-3.141,-3.1489,-3.1541,-3.1576,-3.1634,-3.1684,-3.1752,-3.1785,-3.1863,-3.1906,-3.1966,-3.1985,-3.1938,-3.2117,-3.2057,-3.2131,-3.2131,-3.217,-3.2167,-3.2375,-3.2197,-3.2197,-3.2196,-3.2196,0,-3.1293,-3.1391,-3.1426,-3.1496,-3.1605,-3.1619,-3.1727,-3.1759,-3.1811,-3.1885,-3.1877,-3.1947,-3.1967,-3.204,-3.2055,-3.2163,-3.2182,-3.2196,-3.2199,-3.2197,-3.2195,-3.2225,-3.2216,-3.2202,-3.2201,-3.22,-3.2199,0,-3.1436,-3.1464,-3.1586,-3.165,-3.1668,-3.1746,-3.1801,-3.1867,-3.1891,-3.1986,-3.2009,-3.2047,-3.2133,-3.2157,-3.226,-3.227,-3.2396,-3.239,-3.2376,-3.2376,-3.2449,-3.2442,-3.2684,-3.2717,-3.2517,-3.2519,-3.252,0,-3.154,-3.1615,-3.1688,-3.1737,-3.1775,-3.1855,-3.1906,-3.1923,-3.1976,-3.2052,-3.2109,-3.2194,-3.2263,-3.2401,-3.2437,-3.2515,-3.2511,-3.259,-3.2523,-3.2518,-3.2512,-3.2508,-3.2515,-3.2603,-3.2605,-3.2607,-3.2608,0,-3.172,-3.173,-3.1805,-3.1884,-3.1945,-3.2008,-3.2068,-3.2109,-3.2135,-3.2195,-3.2283,-3.2336,-3.2441,-3.2525,-3.2605,-3.2639,-3.2629,-3.2629,-3.2651,-3.265,-3.2639,-3.2646,-3.2411,-3.2624,-3.2622,-3.2621,-3.262,-3.262,-3.1847,-3.1913,-3.1975,-3.2058,-3.2105,-3.2161,-3.2227,-3.226,-3.2334,-3.2421,-3.2426,-3.2521,-3.2581,-3.2686,-3.2725,-3.28,-3.2776,-3.2807,-3.2815,-3.2823,-3.2829,-3.2627,-3.2814,-3.2813,-3.2813,-3.2813,-3.2812,0,-3.2028,-3.2066,-3.2142,-3.2227,-3.2292,-3.2276,-3.2342,-3.2397,-3.2482,-3.2538,-3.2606,-3.2707,-3.2789,-3.2831,-3.2912,-3.2963,-3.296,-3.2984,-3.298,-3.2989,-3.2845,-3.2819,-3.2985,-3.2985,-3.2985,-3.2985,-3.2985,-3.2985,-3.2129,-3.224,-3.2257,-3.2391,-3.2429,-3.2523,-3.2562,-3.2613,-3.2659,-3.2772,-3.284,-3.2867,-3.2918,-3.3003,-3.3076,-3.3087,-3.3117,-3.3144,-3.3151,-3.3016,-3.2999,-3.2982,-3.2957,-3.315,-3.315,-3.3288,-3.329,-3.3291]}]]